DW6451 Weather Reports


Display with metric or nautical units.
time (UTC)temp
F
wind
direction
speed
MPH
gust
MPH
rain 1hr
in
rain 24hr
in
rain mn
in
humidity
%
barometer
mb
20260831110036 67 128 0.0 0.0 0.00 0.00 0.00 99 1007.3
20260831104541 67 128 0.0 0.0 0.00 0.00 0.00 98 1007.3
20260831103033 67 128 0.0 0.0 0.00 0.00 0.00 98 1007.2
20260831101533 67 128 0.0 0.0 0.00 0.00 0.00 98 1007.2
20260831100044 67 128 0.0 0.0 0.00 0.00 0.00 98 1007.5
20260831094532 67 128 0.0 0.0 0.00 0.00 0.00 97 1007.6
20260831093032 67 128 0.0 0.0 0.00 0.00 0.00 97 1007.6
20260831091531 67 128 0.0 0.0 0.00 0.00 0.00 97 1007.6
20260831090030 68 128 0.0 0.0 0.00 0.00 0.00 97 1007.3
20260831084528 68 128 0.0 0.0 0.00 0.00 0.00 97 1007.1
20260831083026 68 128 0.0 0.0 0.00 0.00 0.00 97 1007.0
20260831081524 68 128 0.0 0.0 0.00 0.00 0.00 97 1007.3
20260831080026 68 128 0.0 0.0 0.00 0.00 0.00 97 1007.6
20260831074521 68 128 0.0 0.0 0.00 0.00 0.00 96 1007.9
20260831073028 68 128 0.0 1.0 0.00 0.00 0.00 96 1008.0
20260831071518 68 128 0.0 3.0 0.00 0.00 0.00 96 1008.4
20260831070014 69 130 0.0 3.0 0.00 0.00 0.00 96 1008.9
20260831064516 69 98 0.0 4.0 0.00 0.00 0.00 96 1009.2
20260831063015 69 29 0.0 1.0 0.00 0.00 0.00 95 1009.3
20260831061509 69 28 0.0 0.0 0.00 0.00 0.00 95 1009.5
20260831060007 69 28 0.0 0.0 0.00 0.00 0.00 95 1009.2
20260831054505 69 28 0.0 0.0 0.00 0.00 0.00 95 1009.5
20260831053003 69 28 0.0 1.0 0.00 0.00 0.00 95 1009.7
20260831051600 69 28 0.0 1.0 0.00 0.00 0.00 94 1010.1
20260831050110 69 28 0.0 1.0 0.00 0.00 0.00 94 1010.2
20260831044600 69 28 0.0 3.0 0.00 0.00 0.00 94 1009.9
20260831043056 69 347 0.0 0.0 0.00 0.00 0.00 94 1009.9
20260831041615 69 347 0.0 0.0 0.00 0.00 0.00 94 1010.0
20260831040054 69 347 0.0 1.0 0.00 0.00 0.00 94 1010.1
20260831034555 69 347 0.0 0.0 0.00 0.00 0.00 94 1010.2
20260831033108 69 347 0.0 0.0 0.00 0.00 0.00 94 1010.5
20260831031555 69 347 0.0 0.0 0.00 0.00 0.00 94 1010.3
20260831030052 69 347 0.0 0.0 0.00 0.00 0.00 95 1010.3
20260831024552 69 347 0.0 1.0 0.00 0.00 0.00 95 1010.3
20260831023053 68 347 0.0 0.0 0.00 0.00 0.00 95 1010.4
20260831021551 68 347 0.0 0.0 0.00 0.00 0.00 95 1010.5
20260831020051 68 347 0.0 0.0 0.00 0.00 0.00 95 1010.4
20260831014601 68 347 0.0 4.0 0.00 0.00 0.00 95 1010.3
20260831013056 68 285 0.0 3.0 0.00 0.00 0.00 94 1010.3
20260831011549 69 71 1.0 5.0 0.00 0.00 0.00 93 1010.1
20260831010106 69 5 0.0 2.0 0.00 0.00 0.00 92 1010.2
20260831004549 70 5 0.0 2.0 0.00 0.00 0.00 91 1010.4
20260831003101 70 5 0.0 1.0 0.00 0.00 0.00 90 1010.3
20260831001547 70 355 0.0 4.0 0.00 0.00 0.00 90 1010.1
20260831000046 71 60 0.0 2.0 0.00 0.00 0.00 89 1010.4
20260830234552 71 60 0.0 2.0 0.00 0.00 0.00 89 1010.6
20260830233042 71 67 0.0 3.0 0.00 0.00 0.00 89 1010.6
20260830231545 70 66 0.0 2.0 0.00 0.00 0.00 89 1010.6
20260830230047 70 70 0.0 3.0 0.00 0.00 0.00 90 1010.6
20260830224551 70 70 1.0 7.0 0.00 0.00 0.00 91 1010.4
20260830223039 69 101 1.0 5.0 0.00 0.00 0.00 93 1010.6
20260830221540 69 9 1.0 6.0 0.00 0.00 0.00 92 1010.7
20260830220038 70 355 1.0 6.0 0.00 0.00 0.00 91 1010.8
20260830214538 70 5 1.0 7.0 0.00 0.00 0.00 90 1011.0
20260830213037 70 348 0.0 6.0 0.00 0.00 0.00 89 1010.9
20260830211536 71 30 1.0 4.0 0.00 0.00 0.00 86 1010.9
20260830210041 72 299 1.0 4.0 0.00 0.00 0.00 86 1011.1
20260830204539 72 96 1.0 5.0 0.00 0.00 0.00 85 1011.1
20260830203033 72 76 1.0 5.0 0.00 0.00 0.00 84 1011.2
20260830201534 72 17 0.0 7.0 0.00 0.00 0.00 86 1011.0
20260830200032 71 46 2.0 7.0 0.00 0.00 0.00 85 1011.0
20260830194532 72 11 1.0 6.0 0.00 0.00 0.00 86 1011.2
20260830193031 71 355 2.0 7.0 0.00 0.00 0.00 87 1010.8
20260830191531 71 157 1.0 8.0 0.00 0.00 0.00 88 1011.0
20260830190035 71 347 1.0 7.0 0.00 0.00 0.00 88 1011.1
20260830184529 71 13 2.0 9.0 0.00 0.00 0.00 86 1011.3
20260830183028 72 333 1.0 5.0 0.00 0.00 0.00 85 1011.2
20260830181528 73 20 1.0 6.0 0.00 0.00 0.00 84 1011.2
20260830180028 73 82 0.0 4.0 0.00 0.00 0.00 82 1011.2
20260830174525 73 60 1.0 5.0 0.00 0.00 0.00 84 1011.4
20260830173023 71 70 1.0 4.0 0.00 0.00 0.00 87 1011.4
20260830171518 70 82 1.0 4.0 0.00 0.00 0.00 89 1011.7
20260830170014 69 24 1.0 5.0 0.00 0.00 0.00 92 1011.9
20260830164516 68 80 0.0 5.0 0.00 0.00 0.00 92 1012.1
20260830163021 68 81 0.0 5.0 0.00 0.00 0.00 91 1012.1
20260830161519 69 91 0.0 2.0 0.00 0.00 0.00 90 1012.2
20260830160017 69 91 0.0 2.0 0.00 0.00 0.00 90 1012.5
20260830154508 69 91 0.0 6.0 0.00 0.01 0.00 90 1012.0
20260830153008 68 105 0.0 3.0 0.00 0.01 0.00 91 1011.7
20260830151505 68 105 0.0 3.0 0.00 0.01 0.00 90 1011.8
20260830150004 68 88 0.0 6.0 0.00 0.01 0.00 91 1011.8
20260830144504 67 111 0.0 4.0 0.00 0.02 0.00 92 1011.6
20260830143001 67 103 1.0 6.0 0.00 0.02 0.00 93 1011.3
20260830141601 67 75 1.0 5.0 0.00 0.02 0.00 94 1011.3
20260830140059 67 100 0.0 5.0 0.00 0.02 0.00 95 1011.5
20260830134557 66 148 0.0 4.0 0.00 0.02 0.00 96 1011.9
20260830133057 65 152 0.0 1.0 0.00 0.02 0.00 97 1011.8
20260830131606 65 152 0.0 2.0 0.00 0.02 0.00 97 1012.0
20260830130052 65 152 0.0 1.0 0.00 0.02 0.00 98 1011.9
20260830124550 64 152 0.0 2.0 0.00 0.02 0.00 98 1011.6
20260830123050 64 152 0.0 1.0 0.00 0.02 0.00 98 1011.4
20260830121509 64 152 0.0 1.0 0.00 0.02 0.00 98 1011.5
20260830120009 64 152 0.0 0.0 0.00 0.02 0.00 98 1011.7
20260830114506 64 152 0.0 0.0 0.00 0.02 0.00 99 1011.4
20260830113005 64 152 0.0 0.0 0.00 0.02 0.00 99 1011.2
20260830111505 64 152 0.0 0.0 0.00 0.02 0.00 99 1011.5